Regional Weather Roundup
Issued by NWS Mt. Holly, NJ

Home | Current Version | Previous Version | Text Only | Print | Product List | Glossary On
Versions: 1 2 3 4 5 6 7 8 9 10 11 12 13 14 15 16 17 18 19 20 21 22 23 24 25 26 27 28 29 30 31 32 33 34 35 36 37 38 39 40 41 42 43 44 45 46 47 48 49 50
000
ASUS41 KPHI 280711
RWRPHI

REGIONAL WEATHER ROUNDUP
NATIONAL WEATHER SERVICE MOUNT HOLLY NJ
200 AM EST SAT FEB 28 2015

NOTE:  "FAIR" INDICATES FEW OR NO CLOUDS BELOW 12,000 FEET WITH NO
SIGNIFICANT WEATHER AND/OR OBSTRUCTIONS TO VISIBILITY.

 * = STATION DOES NOT REPORT PRECIPITATION (E.G. RAIN, SNOW, ETC.)
        OR FOG.

NJZ015>026-280800-
SOUTHERN NEW JERSEY

CITY           SKY/WX    TMP DP  RH WIND       PRES   REMARKS
POMONA         CLEAR     14   6  70 NW6       30.65R WCI   5
RIO GRANDE*    CLEAR     23   5  46 N6        30.68R WCI  16
MILLVILLE      CLEAR    N/A N/A N/A W5        30.66R
WRIGHTSTOWN    CLEAR     15   4  60 N7        30.64R WCI   6
MOUNT HOLLY    CLEAR     18   5  57 N7        30.68R WCI   9
TRENTON        CLEAR     16  -2  45 N3        30.67R

$$
NJZ001>014-280800-
NORTHERN NEW JERSEY

CITY           SKY/WX    TMP DP  RH WIND       PRES   REMARKS
SUSSEX         CLEAR     12  -6  44 NW9       30.63F WCI   0
ANDOVER*         N/A     10  -5  50 N6        30.63S WCI   0
MORRISTOWN     CLEAR     18  -4  38 NW5       30.65S WCI  11
NEWARK         CLEAR     18  -1  43 NW14      30.66R WCI   4
TETERBORO      CLEAR     16  -3  43 NW7       30.66R WCI   6
CALDWELL       CLEAR     14  -5  42 N5        30.66S WCI   6
SOMERVILLE     CLEAR     15  -3  44 N7        30.65S WCI   5
ALLAIRE*       CLEAR     16   0  48 NW7       30.65R WCI   6
TOMS RIVER*    CLEAR     16   1  53 CALM      30.67R

$$
PAZ043-044-047-054-055-060>062-066>071-280800-
EASTERN PENNSYLVANIA

CITY           SKY/WX    TMP DP  RH WIND       PRES   REMARKS
PHILADELPHIA   CLEAR     21   4  47 N12       30.69R WCI   9
NORTH PHILA    CLEAR     19   1  45 N6        30.69R WCI  11
BLUE BELL      CLEAR     19   3  49 N3        30.65R
DOYLESTOWN     CLEAR     13  -1  54 CALM      30.65R
QUAKERTOWN*    CLEAR     14   0  52 N7        30.65R WCI   4
POTTSTOWN      CLEAR     15   0  51 N7        30.68R WCI   5
LANCASTER      CLEAR     13  -1  54 NW5       30.66R WCI   5
COATESVILLE    CLEAR     18   1  49 NW6       30.64R WCI   9
READING        CLEAR     14   0  53 N3        30.67R
ALLENTOWN      CLEAR     11  -4  51 NW6       30.66R WCI   1
MOUNT POCONO     N/A    N/A N/A N/A MISG      30.49S
HAZLETON       CLEAR     10  -2  56 MISG      30.57S
WILKES BARRE   PTCLDY     3  -5  69 CALM      30.63R

$$
DEZALL-MDZ008-012-015-019-020-280800-
DELAWARE AND EASTERN MARYLAND

CITY           SKY/WX    TMP DP  RH WIND       PRES   REMARKS
WILMINGTON     CLEAR     18   4  54 NW6       30.68R WCI  10
DOVER          CLEAR     20   6  53 NW9       30.69R WCI   9
GEORGETOWN     PTCLDY    22   5  48 N3        30.69R
EASTON         CLEAR     23   8  52 N3        30.73S
PATUXENT       CLEAR     23   4  44 N8        30.69R WCI  14
OCEAN CITY     PTCLDY    19  11  70 NW5       30.68R WCI  12
WALLOPS ISLAND PTCLDY    20  13  74 N6        30.68R WCI  12
CAMBRIDGE      PTCLDY    25   7  46 N7        30.69R WCI  17
SALISBURY      PTCLDY    18  13  80 CALM      30.69R

$$
PAZ001-021-NYZ056-072-MDZ011-DCZ001-280800-
OTHER NEARBY LOCATIONS

CITY           SKY/WX    TMP DP  RH WIND       PRES   REMARKS
HARRISBURG     CLEAR     16  -1  47 NW8       30.68R WCI   5
STATE COLLEGE  PTCLDY     6  -6  57 CALM      30.63S
WILLIAMSPORT   FAIR      11  -3  53 W5        30.69R WCI   3
BINGHAMTON     CLEAR      1  -5  75 NW5       30.55S WCI  -9
NEW YORK CITY  CLEAR     19  -4  36 VRB5      30.67R WCI  12
BALTIMORE      PTCLDY    17   0  47 NW5       30.70R WCI  10
WASHINGTON DC  MOCLDY    23   4  44 N7        30.72R WCI  15

$$


USA.gov is the U.S. government's official web portal to all federal, state and local government web resources and services.